STARLINK-34027, 63936

Orbit data source: Space-Track

STARLINK-34027, 63936 is a payload satellite owned by SpaceX/Seattle (US) in LEO that was launched on Tue, 13 May 2025 UTC via an FALCON 9 launch vehicle from the Air Force Western Test Range (AFWTR). Payload-class satellites include a variety of spacecraft equipped with specific instruments for various scientific and technological missions. These include communications satellites like Starlink; space stations such as the ISS; scientific satellites like the Hubble; Earth observation satellites from companies like Planet Labs, Umbra, and HawkEye 360; GPS; miniature CubeSats for education and research; and military/defense satellites.

Loading next visibility...
Identifier
63936, 2025-098L
Orbit
LEO
Country
Flag of USUS
Related business
Manufacturer
SpaceX/Seattle
Mission
Operational Commercial Communications
Bus & Motor
STARLINK V2MO, Unknown motor
Mass
575 kg wet, ~530 kg dry
Launch date (UTC)
2025-05-13 (7 months ago)
Launch vehicle
FALCON 9
Launch site
Air Force Western Test Range (AFWTR)
Object type
Payload
Rocket body
Debris
Shape & HBR
Box + 2 Pan, 17.7 m
Radar Cross Section
36.964 m², Large (>1 m²)

Expand to show TLE details & history
Last TLE update: 9 hours ago

TLE from 9 hours ago
0 STARLINK-34027
1 63936U 25098L   25349.81746051  .00002049  00000-0  17947-3 0  9992
2 63936  70.0005 125.7448 0003468 269.7836  90.2926 14.98337009 33990
Epoch: 2025-12-15T19:37Z
TLE epoch observation values (Epoch: 2025-12-15T19:37:08.588Z)
Latitude
0.00003°
Longitude
106.74845°
Altitude
574.471 km
Speed
7.574 km/s
True Right ascension
08h 22m 58s
True Declination
0° 00' 00"
Sunlit
Object was in full shadow at epoch
Visualization orbit readout
Latitude
Unknown
Longitude
Unknown
Altitude
Unknown
Speed
Unknown
Apparent Right ascension
Unknown
Apparent Declination
Unknown
Sunlit
N/A
Visualization observer readout
Local Sidereal Time
03:12:44
Azimuth
Unknown
Elevation
Unknown
Doppler factor
Unknown
Orbital elements
Apogee altitude
572.392 km
Perigee altitude
567.573 km
Semi-major axis
6,948.119 km
Eccentricity
0.00035
Inclination
70.0005°
RAAN
125.7448°
Arg. of periapsis
269.7836°
True anomaly
90.33234°
Mean anomaly
90.2926°
Eccentric anomaly
90.31247°
Mean motion
3.74751 °/min
Orbital period
96.06 mins
BSTAR
0.00017947
Loading maneuver chart data...
Computing Atmospheric mass density...
Loading historical data...
Loading historical data...
Loading historical data...
Loading historical data...
Loading historical data...
Loading historical data...
Loading historical data...

Documentation

Showing up to 5 results
|